User: anonymous   Login
Location: Mentone
(34.5413°N, 85.5351°W)
Time: 23:34:48
(UTC-05:00)
Language:

Okean O Rocket - Orbit

View from above orbital plane
View from above orbital plane
View from above satellite
View from above satellite

Ground track
Ground track

The orbit data is extracted from the following two-line orbital elements,

1 25861U 99039B   15090.85297093  .00000742  00000-0  10972-3 0  9995
2 25861 097.9924 051.6386 0016057 162.3827 249.5425 14.78066182846351
Epoch (UTC): 31 March 2015 20:28:16
Eccentricity: 0.0016057
inclination: 97.9924°
perigee height: 624 km
apogee height: 647 km
right ascension of ascending node: 51.6386°
argument of perigee: 162.3827°
revolutions per day: 14.78066182
mean anomaly at epoch: 249.5425°
orbit number at epoch: 84635

The dashed part of the orbit path shows where the satellite is in the earth's shadow,  

DLR